Regional Weather Roundup
Issued by NWS

Home | Current Version | Previous Version | Text Only | Print | Product List | Glossary Off
Versions: 1 2 3 4 5 6 7 8 9 10 11 12 13 14 15 16 17 18 19 20 21 22 23 24 25 26 27 28 29 30 31 32 33 34 35 36 37 38 39 40 41 42 43 44 45 46 47 48 49 50

000
ASUS43 KIND 250209
RWRIN

WEATHER ROUNDUP FOR INDIANA
NATIONAL WEATHER SERVICE INDIANAPOLIS IN
1000 PM EDT TUE APR 24 2018

NOTE: "FAIR" INDICATES FEW OR NO CLOUDS BELOW 12,000 FEET WITH NO
SIGNIFICANT WEATHER AND/OR OBSTRUCTIONS TO VISIBILITY.

* - STATION DOES NOT REPORT WEATHER SUCH AS PRECIPITATION OR FOG.

+ - STATION NOT QUALITY CONTROLLED BY THE NATIONAL WEATHER SERVICE.
    USE DATA WITH CAUTION...ESPECIALLY DEWPOINT AND RELATIVE
    HUMIDITY OBSERVATIONS.

INZ001>003-010>013-019-020-250300-
NORTHWEST INDIANA

CITY           SKY/WX    TMP DP  RH WIND       PRES   REMARKS
GARY /AIRPORT/ PTCLDY    45  43  93 CALM      30.01S
KNOX *+        CLOUDY    54  48  82 N5        29.98R
LA PORTE +     CLOUDY    52  47  84 N9        29.99R
MICHIGAN CITY+ CLOUDY    46  45  93 N7        30.01R
MONTICELLO +   CLOUDY    56  49  76 NE6       29.97R
RENSSELAER +   CLOUDY    55  45  67 N5        29.99R
VALPARAISO     CLOUDY    53  48  83 N7        30.00R

$$

LMZ046-743>745-250300-
SOUTHERN LAKE MICHIGAN

STATION/POSITION TIME  TEMP    WIND        PRES    WAVE
                       AIR SEA DIR/SP/G            HT
                 (UTC) (F)     (DEG/KT/KT) (MB)    (FT)
BURNS HARBOR     0140   43      CALM  /  4 1016.9R
MICHIGAN CITY    0140   44     290/  3/  3   N/A

$$

INZ004-005-014>016-021>024-250300-
NORTH CENTRAL INDIANA

CITY           SKY/WX    TMP DP  RH WIND       PRES   REMARKS
GOSHEN         CLOUDY    55  50  83 NE6       29.97S
LOGANSPORT +   CLOUDY    54  50  87 N3        29.98R
PERU/GRISSOM   CLOUDY    55  55 100 N3        29.96R
ROCHESTER +    CLOUDY    55  52  88 CALM      29.98R
SOUTH BEND     CLOUDY    53  48  83 N6        29.99R
WARSAW +       CLOUDY    54  50  87 CALM      29.97S

$$

INZ006>009-017-018-025>027-250300-
NORTHEAST INDIANA

CITY           SKY/WX    TMP DP  RH WIND       PRES   REMARKS
ANGOLA *+      CLOUDY    52  50  93 NE3       29.97R
AUBURN +       CLOUDY    50  50 100 NE7       29.98R
FORT WAYNE     CLOUDY    53  52  96 NE9       29.96S
HUNTINGTON +   CLOUDY    52  51  95 N5        29.96R

$$

INZ028-029-035-036-043>045-051>053-250300-
WEST CENTRAL INDIANA

CITY           SKY/WX    TMP DP  RH WIND       PRES   REMARKS
CRAWFORDSVL +  CLOUDY    53  51  93 N3        29.97R
GREENCASTLE +  CLOUDY    54  52  94 CALM      29.98R
LAFAYETTE      CLOUDY    56  51  84 NE5       29.96S
TERRE HAUTE    CLOUDY    57  53  86 CALM      29.97R

$$

INZ030>032-037>040-046>048-054>057-064-065-250300-
CENTRAL INDIANA

CITY           SKY/WX    TMP DP  RH WIND       PRES   REMARKS
COLUMBUS       LGT RAIN  54 N/A N/A N6        29.94S FOG
FISHERS *+     CLOUDY    52  52 100 N5        29.96R
FRANKFORT +    CLOUDY    57  53  87 N6        29.98R
GREENWOOD *+   CLOUDY    53  52  98 CALM      29.96R
INDIANAPOLIS   CLOUDY    54  52  93 N7        29.96R
-EAGLE CREEK   CLOUDY    55  51  86 N6        29.95R
KOKOMO +       CLOUDY    54  51  90 N5        29.97R
MARION +       CLOUDY    53  51  94 CALM      29.96R
MT COMFORT *+  CLOUDY    52  52 100 N6        29.95R
SHELBYVILLE    CLOUDY    55  52  89 N7        29.94R
ZIONSVILLE +   CLOUDY    52  51  97 N6        29.96S

$$

INZ033-034-041-042-049-050-058-059-250300-
EAST CENTRAL INDIANA

CITY           SKY/WX    TMP DP  RH WIND       PRES   REMARKS
MUNCIE         CLOUDY    55  52  89 N7        29.94R
RICHMOND +     DRIZZLE   50  50 100 N7        29.94R

$$

INZ060-061-067>069-081>083-085>088-250300-
SOUTHWEST INDIANA

CITY           SKY/WX    TMP DP  RH WIND       PRES   REMARKS
EVANSVILLE     CLOUDY    56  56 100 NW6       29.99R FOG
HUNTINGBURG +  CLOUDY    55  53  93 NW7       29.97R
WASHINGTON +   CLOUDY    55  53  94 NW5       29.97R

$$

INZ062-063-066-070>080-084-089>092-250300-
SOUTH CENTRAL AND SOUTHEAST INDIANA

CITY           SKY/WX    TMP DP  RH WIND       PRES   REMARKS
BATESVILLE +   CLOUDY    54  54 100 MISG      29.93R
BEDFORD +      FAIR      54  52  94 NW3       29.94  FOG
BLOOMINGTON    CLOUDY    55  53  93 N5        29.96R
FRENCH LICK *+ CLOUDY    54 N/A N/A CALM      29.96R
MADISON *+     CLOUDY    54  52  94 NW3       29.94R
NORTH VERNON + CLOUDY    52  52 100 NW6       29.94R
SEYMOUR +      CLOUDY    55  55 100 N6        29.94R FOG

$$





USA.gov is the U.S. government's official web portal to all federal, state and local government web resources and services.